When you browse on this site, cookies collect data to enhance your experience and personalize the content and advertising you see.
Visit our Privacy Policy to learn more. By continuing to use the site, you agree to this use of cookies and data.
  • In Hungary
  • List of Countries
  • For 7 days
  • Water Temperature
  • Weather Map
  • News
  • Weather Widgets
  • user-avatar
    Login

    Hourly Weather Bokeo

    Today, 18 November, Monday

    Time Temperature Precipitation Wind Pressure Humidity
    00:00 +18°C° 0 mm 0 mps 710 mmHg 83%
    01:00 +17°C° 0 mm 0 mps 709 mmHg 85%
    02:00 +17°C° 0 mm 0 mps 710 mmHg 86%
    03:00 +17°C° 0 mm 0 mps 710 mmHg 87%
    04:00 +17°C° 0 mm 0 mps 710 mmHg 88%
    05:00 +17°C° 0 mm 0 mps 710 mmHg 88%
    06:00 +17°C° 0 mm 0 mps 711 mmHg 89%
    07:00 +17°C° 0 mm 0 mps 711 mmHg 89%
    08:00 +20°C° 0 mm 0 mps 712 mmHg 77%
    09:00 +23°C° 0 mm 0 mps 713 mmHg 66%
    10:00 +27°C° 0 mm 0 mps 713 mmHg 54%
    11:00 +28°C° 0 mm 0 mps 713 mmHg 49%
    12:00 +29°C° 0 mm 0 mps 712 mmHg 44%
    13:00 +32°C° 0 mm 1 mps 711 mmHg 39%
    14:00 +32°C° 0 mm 1 mps 711 mmHg 42%
    15:00 +29°C° 0 mm 0 mps 711 mmHg 44%
    16:00 +28°C° 0 mm 0 mps 710 mmHg 46%
    17:00 +26°C° 0 mm 0 mps 710 mmHg 55%
    18:00 +23°C° 0 mm 0 mps 710 mmHg 63%
    19:00 +21°C° 0 mm 0 mps 710 mmHg 71%
    20:00 +20°C° 0 mm 0 mps 710 mmHg 73%
    21:00 +20°C° 0 mm 0 mps 711 mmHg 75%
    22:00 +19°C° 0 mm 0 mps 711 mmHg 78%
    23:00 +19°C° 0 mm 0 mps 711 mmHg 79%

    Tomorrow, 19 November, Tuesday

    Time Temperature Precipitation Wind Pressure Humidity
    00:00 +18°C° 0 mm 0 mps 710 mmHg 81%
    01:00 +18°C° 0 mm 0 mps 710 mmHg 83%
    02:00 +18°C° 0 mm 0 mps 710 mmHg 85%
    03:00 +17°C° 0 mm 0 mps 710 mmHg 87%
    04:00 +17°C° 0 mm 0 mps 710 mmHg 88%
    05:00 +17°C° 0 mm 0 mps 710 mmHg 88%
    06:00 +17°C° 0 mm 0 mps 711 mmHg 88%
    07:00 +17°C° 0 mm 0 mps 711 mmHg 88%
    08:00 +20°C° 0 mm 0 mps 712 mmHg 77%
    09:00 +23°C° 0 mm 0 mps 712 mmHg 67%
    10:00 +26°C° 0 mm 0 mps 713 mmHg 56%
    11:00 +27°C° 0 mm 0 mps 712 mmHg 52%
    12:00 +28°C° 0 mm 0 mps 712 mmHg 49%
    13:00 +31°C° 0 mm 1 mps 711 mmHg 45%
    14:00 +30°C° 0 mm 1 mps 711 mmHg 50%
    15:00 +30°C° 0 mm 1 mps 710 mmHg 56%
    16:00 +29°C° 0 mm 1 mps 710 mmHg 62%
    17:00 +25°C° 0.1 mm 0 mps 710 mmHg 69%
    18:00 +23°C° 0.1 mm 0 mps 710 mmHg 76%
    19:00 +21°C° 0.1 mm 0 mps 710 mmHg 84%
    20:00 +21°C° 0.1 mm 0 mps 711 mmHg 84%
    21:00 +21°C° 0.1 mm 0 mps 711 mmHg 85%
    22:00 +20°C° 0.1 mm 0 mps 711 mmHg 86%
    23:00 +20°C° 0.1 mm 0 mps 711 mmHg 87%

    Day after tomorrow, 20 November, Wednesday

    Time Temperature Precipitation Wind Pressure Humidity
    00:00 +20°C° 0.1 mm 0 mps 711 mmHg 89%
    01:00 +20°C° 0.1 mm 0 mps 711 mmHg 91%
    02:00 +20°C° 0.2 mm 0 mps 711 mmHg 92%
    03:00 +19°C° 0.2 mm 0 mps 711 mmHg 94%
    04:00 +19°C° 0.2 mm 0 mps 711 mmHg 95%
    05:00 +19°C° 0.2 mm 0 mps 711 mmHg 95%
    06:00 +19°C° 0.2 mm 0 mps 712 mmHg 95%
    07:00 +19°C° 0.2 mm 0 mps 712 mmHg 95%
    08:00 +20°C° 0.3 mm 0 mps 712 mmHg 94%
    09:00 +21°C° 0.3 mm 0 mps 713 mmHg 92%
    10:00 +22°C° 0.3 mm 0 mps 713 mmHg 91%
    11:00 +22°C° 0.2 mm 0 mps 712 mmHg 89%
    12:00 +22°C° 0.2 mm 0 mps 711 mmHg 88%
    13:00 +23°C° 0.2 mm 0 mps 710 mmHg 86%
    14:00 +24°C° 0 mm 0 mps 710 mmHg 79%
    15:00 +25°C° 0 mm 0 mps 710 mmHg 71%
    16:00 +25°C° 0 mm 0 mps 709 mmHg 64%
    17:00 +24°C° 0 mm 0 mps 710 mmHg 72%
    18:00 +22°C° 0 mm 0 mps 710 mmHg 81%
    19:00 +20°C° 0 mm 0 mps 710 mmHg 90%
    20:00 +19°C° 0 mm 0 mps 711 mmHg 91%
    21:00 +19°C° 0 mm 0 mps 711 mmHg 93%
    22:00 +18°C° 0 mm 0 mps 711 mmHg 95%
    23:00 +18°C° 0 mm 0 mps 711 mmHg 96%

    21 November, Thursday

    Time Temperature Precipitation Wind Pressure Humidity
    00:00 +18°C° 0 mm 0 mps 711 mmHg 97%
    01:00 +17°C° 0 mm 0 mps 711 mmHg 98%
    02:00 +17°C° 0 mm 0 mps 711 mmHg 98%
    03:00 +17°C° 0 mm 0 mps 711 mmHg 97%
    04:00 +17°C° 0 mm 0 mps 711 mmHg 97%
    05:00 +17°C° 0 mm 0 mps 711 mmHg 97%
    06:00 +17°C° 0 mm 0 mps 712 mmHg 96%
    07:00 +18°C° 0 mm 0 mps 712 mmHg 95%
    08:00 +20°C° 0.1 mm 0 mps 713 mmHg 87%
    09:00 +22°C° 0.1 mm 0 mps 713 mmHg 79%
    10:00 +25°C° 0.1 mm 0 mps 714 mmHg 71%
    11:00 +26°C° 0.3 mm 0 mps 713 mmHg 67%
    12:00 +27°C° 0.3 mm 0 mps 712 mmHg 62%
    13:00 +28°C° 0.3 mm 0 mps 712 mmHg 58%
    14:00 +27°C° 0.2 mm 0 mps 711 mmHg 59%
    15:00 +27°C° 0.2 mm 0 mps 711 mmHg 61%
    16:00 +27°C° 0.2 mm 0 mps 710 mmHg 63%
    17:00 +24°C° 0.1 mm 0 mps 710 mmHg 72%
    18:00 +22°C° 0.1 mm 0 mps 710 mmHg 81%
    19:00 +20°C° 0.1 mm 0 mps 710 mmHg 90%
    20:00 +20°C° 0 mm 0 mps 710 mmHg 91%
    21:00 +19°C° 0 mm 0 mps 711 mmHg 93%
    22:00 +19°C° 0 mm 0 mps 711 mmHg 94%
    23:00 +18°C° 0 mm 0 mps 711 mmHg 95%

    22 November, Friday

    Time Temperature Precipitation Wind Pressure Humidity
    00:00 +18°C° 0 mm 0 mps 711 mmHg 96%
    01:00 +18°C° 0 mm 0 mps 711 mmHg 97%
    02:00 +17°C° 0 mm 0 mps 711 mmHg 97%
    03:00 +17°C° 0 mm 0 mps 711 mmHg 97%
    04:00 +17°C° 0 mm 0 mps 711 mmHg 97%
    05:00 +17°C° 0 mm 0 mps 711 mmHg 97%
    06:00 +17°C° 0 mm 0 mps 711 mmHg 96%
    07:00 +17°C° 0 mm 0 mps 712 mmHg 96%
    08:00 +20°C° 0.1 mm 0 mps 712 mmHg 86%
    09:00 +22°C° 0.1 mm 0 mps 713 mmHg 76%
    10:00 +25°C° 0.1 mm 0 mps 713 mmHg 67%
    11:00 +26°C° 0.1 mm 0 mps 713 mmHg 60%
    12:00 +29°C° 0.1 mm 1 mps 712 mmHg 54%
    13:00 +30°C° 0.1 mm 1 mps 711 mmHg 48%
    14:00 +30°C° 0 mm 1 mps 711 mmHg 49%
    15:00 +30°C° 0 mm 1 mps 710 mmHg 50%
    16:00 +29°C° 0 mm 1 mps 710 mmHg 52%
    17:00 +25°C° 0 mm 0 mps 710 mmHg 60%
    18:00 +23°C° 0 mm 0 mps 710 mmHg 69%
    19:00 +20°C° 0 mm 0 mps 710 mmHg 78%
    20:00 +20°C° 0 mm 0 mps 710 mmHg 80%
    21:00 +19°C° 0 mm 0 mps 710 mmHg 82%
    22:00 +19°C° 0 mm 0 mps 710 mmHg 84%
    23:00 +18°C° 0 mm 0 mps 710 mmHg 86%

    23 November, Saturday

    Time Temperature Precipitation Wind Pressure Humidity
    00:00 +18°C° 0 mm 0 mps 710 mmHg 88%
    01:00 +17°C° 0 mm 0 mps 710 mmHg 90%
    02:00 +17°C° 0 mm 0 mps 710 mmHg 92%
    03:00 +17°C° 0 mm 0 mps 710 mmHg 94%
    04:00 +16°C° 0 mm 0 mps 709 mmHg 96%
    05:00 +16°C° 0 mm 0 mps 710 mmHg 96%
    06:00 +16°C° 0 mm 0 mps 710 mmHg 95%
    07:00 +16°C° 0 mm 0 mps 711 mmHg 95%
    08:00 +20°C° 0 mm 0 mps 711 mmHg 82%
    09:00 +23°C° 0 mm 0 mps 712 mmHg 70%
    10:00 +26°C° 0 mm 0 mps 712 mmHg 57%
    11:00 +27°C° 0 mm 0 mps 712 mmHg 53%
    12:00 +30°C° 0 mm 1 mps 711 mmHg 48%
    13:00 +31°C° 0 mm 1 mps 710 mmHg 44%
    14:00 +30°C° 0 mm 1 mps 710 mmHg 45%
    15:00 +30°C° 0 mm 1 mps 709 mmHg 47%
    16:00 +30°C° 0 mm 1 mps 709 mmHg 48%
    17:00 +27°C° 0 mm 1 mps 709 mmHg 56%
    18:00 +23°C° 0 mm 0 mps 709 mmHg 65%
    19:00 +20°C° 0 mm 0 mps 709 mmHg 74%
    20:00 +20°C° 0 mm 0 mps 709 mmHg 76%
    21:00 +19°C° 0 mm 0 mps 709 mmHg 78%
    22:00 +18°C° 0 mm 0 mps 710 mmHg 80%
    23:00 +18°C° 0 mm 0 mps 709 mmHg 82%
    Show more